Location: B
(0.0000°N, 0.0000°E)
Time: 08:58:34
(UTC+02:00)

ISS - All Passes

Search period start: 27 September 2016 00:00
Search period end: 07 October 2016 00:00
Orbit: 400 x 410 km, 51.6° (Epoch: 27 September)

Date Brightness Start Highest point End Pass type
(mag) Time Alt. Az. Time Alt. Az. Time Alt. Az.
27 Sep - 06:28:33 10° NE 06:28:56 10° NE 06:29:19 10° ENE visible
27 Sep - 08:02:30 10° WNW 08:05:13 24° SW 08:07:57 10° S daylight
27 Sep - 19:36:13 10° SW 19:39:16 38° NW 19:42:18 10° NNE daylight
28 Sep - 07:09:56 10° NW 07:13:12 70° SW 07:16:29 10° SSE visible
28 Sep - 18:44:02 10° SSW 18:47:15 65° SE 18:50:27 10° NE daylight
29 Sep - 06:18:06 10° NNW 06:21:10 37° NE 06:24:15 10° SE visible
29 Sep - 17:52:36 10° S 17:55:12 22° SE 17:57:48 10° ENE daylight
29 Sep - 19:30:56 10° WNW 19:31:30 10° NW 19:32:03 10° NW daylight
30 Sep - 05:27:14 10° NNE 05:29:07 14° NE 05:31:00 10° E visible
30 Sep - 07:03:10 10° W 07:05:24 17° SW 07:07:39 10° S visible
30 Sep - 18:36:39 10° WSW 18:39:25 26° NW 18:42:12 10° N daylight
01 Oct - 06:10:10 10° NW 06:13:19 45° SW 06:16:30 10° SSE visible
01 Oct - 17:44:07 10° SW 17:47:22 81° NW 17:50:36 10° NNE daylight
02 Oct - 05:18:02 10° NNW 05:21:16 56° NE 05:24:30 10° SE night (unlit)
02 Oct - 16:52:20 10° S 16:55:18 32° SE 16:58:14 10° ENE daylight
03 Oct - 04:26:41 10° N 04:29:10 20° NE 04:31:41 10° ESE night (unlit)
03 Oct - 06:04:05 10° WSW 06:05:28 12° SW 06:06:52 10° SSW night (unlit)
03 Oct - 16:01:41 10° SSE 16:03:11 13° SE 16:04:41 10° E daylight
03 Oct - 17:37:07 10° W 17:39:28 18° NW 17:41:49 10° N daylight
04 Oct - 05:10:25 10° WNW 05:13:21 30° SW 05:16:18 10° S night (unlit)
04 Oct - 16:44:12 10° SW 16:47:22 51° NW 16:50:31 10° NNE daylight
05 Oct - 04:17:59 10° NW 04:21:14 87° NE 04:24:32 10° SE night (unlit)
05 Oct - 15:52:07 10° SSW 15:55:16 47° SE 15:58:23 10° NE daylight
06 Oct - 03:26:15 10° N 03:29:08 28° NE 03:32:01 10° ESE night (unlit)
06 Oct - 15:00:51 10° S 15:03:08 17° SE 15:05:23 10° E daylight
06 Oct - 16:37:44 10° W 16:39:24 13° NW 16:41:03 10° NNW daylight
